[ hide orbit diagram ]
For accurate long-term ephemerides, please instead use our Horizons system.This orbit viewer was implemented using two-body methods, and hence should not be used for determining accurate long-term trajectories (over several years or decades) or planetary encounter circumstances.
Orbital Elements at Epoch 2459200.5 (2020-Dec-17.0) TDB
Reference: JPL 28 (heliocentric ecliptic J2000)
Element | Value | Uncertainty (1-sigma) | Units |
e | .2017691393731259 | 4.4916e-08 | |
a | 2.904469614350605 | 1.7678e-08 | au |
q | 2.318437279927689 | 1.2707e-07 | au |
i | 10.56081850200212 | 4.4986e-06 | deg |
node | 201.4970969833274 | 2.3355e-05 | deg |
peri | 125.317195975025 | 2.818e-05 | deg |
M | 151.5127016888849 | 2.1015e-05 | deg |
tp | 2458439.569092677821 (2018-Nov-17.06909268) | 0.00010226 | TDB |
period | 1808.001069101658 4.95 | 1.6507e-05 4.519e-08 | d yr |
n | .1991149265076892 | 1.8179e-09 | deg/d |
Q | 3.490501948773522 | 2.1245e-08 | au |
|
| | Orbit Determination Parameters
Additional Information
|
[ show covariance matrix ]
Physical Parameter Table
Parameter |
Symbol |
Value |
Units |
Sigma |
Reference |
Notes |
absolute magnitude |
H |
14.3 |
|
n/a |
MPO365804 |
|
diameter |
diameter |
4.779 |
km |
1.083 |
urn:nasa:pds:neowise_diameters_albedos::2.0[mainbelt] (http://adsabs.harvard.edu/abs/2011ApJ...741...68M) |
|
geometric albedo |
albedo |
0.177 |
|
0.077 |
urn:nasa:pds:neowise_diameters_albedos::2.0[mainbelt] (http://adsabs.harvard.edu/abs/2011ApJ...741...68M) |
|
|
47164 Ticino | Discovered 1999 Oct. 10 by S. Sposetti at Gnosca. |
Ticino is one of the cantons of Switzerland. The Gnosca Observatory, where this minor planet was discovered, lies in the center of this beautiful region. |
NOTE: some special characters may not display properly (any characters within {} are an attempt to place the proper accent above a character) |
Reference: 20060613/MPCPages.arc | Last Updated: 2008-05-22 |
|
[ show close-approach data ]
|